This is the latest recevied weather packets stored in our database for station/object EA5DFV. If no packets are shown the sender has not sent any weather packets the latest 10 day(s).
| Time | Temp. | Humidity | Pressure | Rain* | Wind** | Luminosity | Snow |
|---|---|---|---|---|---|---|---|
| 1778007507 | 18.89° C | 56% | 1009.1 hPa | 0 mm | - | 5 W/m² | - |
| 1778007204 | 18.89° C | 57% | 1009.1 hPa | 0 mm | - | 7 W/m² | - |
| 1778006913 | 18.89° C | 58% | 1009 hPa | 0 mm | - | 12 W/m² | - |
| 1778006607 | 18.89° C | 61% | 1009 hPa | 0 mm | - | 16 W/m² | - |
| 1778006305 | 19.44° C | 62% | 1009 hPa | 0 mm | - | 18 W/m² | - |
| 1778006014 | 19.44° C | 63% | 1009.1 hPa | 0 mm | - | 21 W/m² | - |
| 1778005708 | 19.44° C | 64% | 1009.1 hPa | 0 mm | - | 25 W/m² | - |
| 1778005398 | 19.44° C | 64% | 1009 hPa | 0 mm | - | 25 W/m² | - |
| 1778005112 | 19.44° C | 63% | 1009 hPa | 0 mm | - | 33 W/m² | - |
| 1778004821 | 19.44° C | 65% | 1009 hPa | 0 mm | - | 30 W/m² | - |
| 1778004515 | 19.44° C | 66% | 1009 hPa | 0 mm | - | 28 W/m² | - |
| 1778004208 | 19.44° C | 67% | 1009 hPa | 0 mm | - | 37 W/m² | - |
| 1778003919 | 20° C | 67% | 1009 hPa | 0 mm | - | 60 W/m² | - |
| 1778003614 | 20° C | 69% | 1008.9 hPa | 0 mm | - | 83 W/m² | - |
| 1778003324 | 20° C | 69% | 1008.9 hPa | 0 mm | - | 84 W/m² | - |
| 1778003014 | 20° C | 69% | 1008.9 hPa | 0 mm | - | 65 W/m² | - |
| 1778002707 | 20° C | 68% | 1008.7 hPa | 0 mm | - | 63 W/m² | - |
| 1778002420 | 20° C | 69% | 1008.7 hPa | 0 mm | - | 79 W/m² | - |
| 1778002111 | 20° C | 72% | 1008.7 hPa | 0 mm | - | 95 W/m² | - |
| 1778001807 | 20° C | 72% | 1008.5 hPa | 0 mm | - | 127 W/m² | - |
| 1778001517 | 20° C | 72% | 1008.6 hPa | 0 mm | - | 113 W/m² | - |
| 1778001211 | 20° C | 70% | 1008.5 hPa | 0 mm | - | 107 W/m² | - |
| 1778000908 | 20.56° C | 70% | 1008.6 hPa | 0 mm | - | 118 W/m² | - |
| 1778000601 | 20.56° C | 71% | 1008.5 hPa | 0 mm | - | 123 W/m² | - |
| 1778000315 | 21.11° C | 70% | 1008.7 hPa | 0 mm | - | 98 W/m² | - |
* Rain latest hour (hover to see other rain measurements)
** Current wind speed in m/s (hover to see current wind gust speed)